Lemoore NAS, CA

8:32 PM PDT on March 22, 2017 (GMT -0700)
Lemoore Naval Air Station

Weather History for KNLC - June, 2013

Change the Weather History Date:

Wednesday, June 12, 2013

  Actual Average Record
Temperature  
Mean Temperature 84 °F -  
Max Temperature 98 °F 89 °F 102 °F (2015)
Min Temperature 71 °F 59 °F 48 °F (2008)
Cooling Degree Days 20    
Growing Degree Days 34 (Base 50)    
Moisture  
Dew Point 49 °F    
Average Humidity 33    
Maximum Humidity 49    
Minimum Humidity 14    
Precipitation  
Precipitation 0.00 in - - ()
Sea Level Pressure  
Sea Level Pressure 29.88 in    
Wind  
Wind Speed 9 mph (NW)    
Max Wind Speed 21 mph    
Max Gust Speed 24 mph    
Visibility 10 miles    
Events      
Averages and records for this station are not official NWS values.
T = Trace of Precipitation, MM = Missing Value Source: NWS Daily Summary

Daily Weather History Graph

Daily Weather History Graph

Search for Another Location

Airport or City:

Trip Planner

Search our weather history database for the weather conditions in past years. The results will help you decide how hot, cold, wet, or windy it might be!

Date:

Astronomy

Jun. 12, 2013 Rise Set
Actual Time 5:41 AM PDT 8:18 PM PDT
Civil Twilight 5:11 AM PDT 8:48 PM PDT
Nautical Twilight 4:33 AM PDT 9:26 PM PDT
Astronomical Twilight 3:51 AM PDT 10:08 PM PDT
Moon 9:20 AM PDT (6/12) 11:02 PM PDT (6/12)
Length of Visible Light 15h 37m
Length of Day
14h 36m
Waxing Crescent, 15% of the Moon is Illuminated
Jun 12
Waxing Crescent
Jun 16
First Quarter
Jun 23
Full
Jun 29
Last Quarter
Jul 8
New

Hourly Weather History & Observations

Time (PDT) Temp. Heat Index Dew Point Humidity Pressure Visibility Wind Dir Wind Speed Gust Speed Precip Events Conditions
12:56 AM 81.0 °F 80.8 °F 55.9 °F 42% 29.86 in 10.0 mi NW 10.4 mph - N/A   Clear
1:56 AM 79.0 °F - 55.9 °F 45% 29.86 in 10.0 mi NW 10.4 mph - N/A   Clear
2:56 AM 77.0 °F - 55.0 °F 47% 29.86 in 10.0 mi NW 5.8 mph - N/A   Clear
3:56 AM 75.9 °F - 54.0 °F 46% 29.87 in 10.0 mi WNW 8.1 mph - N/A   Clear
4:56 AM 73.9 °F - 53.1 °F 48% 29.88 in 10.0 mi WNW 6.9 mph - N/A   Clear
5:56 AM 73.0 °F - 53.1 °F 49% 29.90 in 10.0 mi WNW 8.1 mph - N/A   Clear
6:56 AM 77.0 °F - 53.1 °F 43% 29.90 in 10.0 mi NW 6.9 mph - N/A   Clear
7:14 AM 77.0 °F - 53.6 °F 44% 29.91 in 10.0 mi NW 8.1 mph - N/A   Clear
7:56 AM 74.5 °F - 52.0 °F 45% 29.91 in 10.0 mi NNW 5.8 mph - N/A   Clear
8:56 AM 77.5 °F - 50.0 °F 38% 29.91 in 10.0 mi NNW 10.4 mph - N/A   Clear
9:56 AM 80.8 °F - 51.1 °F 35% 29.91 in 10.0 mi NNW 9.2 mph - N/A   Clear
10:56 AM 83.8 °F - 52.0 °F 33% 29.91 in 10.0 mi WNW 6.9 mph - N/A   Clear
11:56 AM 86.4 °F 84.4 °F 53.1 °F 32% 29.90 in 10.0 mi Variable 3.5 mph - N/A   Clear
12:56 PM 88.7 °F - 52.0 °F 28% 29.88 in 10.0 mi Calm Calm - N/A   Clear
1:56 PM 90.0 °F - 48.0 °F 24% 29.87 in 10.0 mi NW 8.1 mph - N/A   Clear
2:56 PM 93.2 °F - 48.9 °F 22% 29.85 in 10.0 mi NNE 10.4 mph 18.4 mph N/A   Clear
3:56 PM 94.1 °F - 52.0 °F 24% 29.84 in 10.0 mi North 10.4 mph 18.4 mph N/A   Partly Cloudy
4:56 PM 96.1 °F - 51.1 °F 22% 29.84 in 10.0 mi NNW 15.0 mph 24.2 mph N/A   Partly Cloudy
5:56 PM 95.0 °F - 42.1 °F 16% 29.83 in 10.0 mi North 16.1 mph - N/A   Partly Cloudy
6:56 PM 93.0 °F - 37.0 °F 14% 29.84 in 10.0 mi NNW 20.7 mph - N/A   Partly Cloudy
7:56 PM 87.1 °F - 39.9 °F 19% 29.86 in 10.0 mi NW 11.5 mph - N/A   Clear
8:56 PM 82.9 °F - 41.0 °F 23% 29.87 in 10.0 mi NNW 17.3 mph - N/A   Clear
9:56 PM 79.0 °F - 41.0 °F 26% 29.89 in 10.0 mi NW 13.8 mph - N/A   Clear
10:56 PM 75.0 °F - 37.0 °F 25% 29.91 in 10.0 mi NNW 12.7 mph - N/A   Clear
11:56 PM 71.1 °F - 46.0 °F 41% 29.91 in 10.0 mi NNW 15.0 mph - N/A   Clear